#timestamp,LO_Frequency,Hit,StdDev 
1501714815.2,286046999.2,N,1.6
1501714835.0,286046996.9,N,1.5
1501714835.9,286046996.9,N,1.4
1501714855.8,286046996.8,N,1.3
1501714875.6,286046999.4,N,1.4
1501714895.4,286046999.5,N,1.4
1501714915.3,286046999.4,N,1.4
1501714935.1,286046999.4,N,1.4
1501714955.9,286046999.6,N,1.4
1501714975.7,286046997.2,N,1.4
1501714995.5,286046997.6,N,1.3
1501715015.4,286046995.2,P,1.5
1501715035.2,286046999.0,N,1.6
1501715055.1,286046998.8,N,1.5
1501715056.0,286046998.8,N,1.4
1501715075.8,286046997.1,N,1.3
1501715095.6,286046997.7,N,1.2
1501715115.5,286046999.1,N,1.2
1501715135.3,286046999.6,N,1.3
1501715155.2,286046997.0,N,1.3
1501715175.9,286046997.1,N,1.2
1501715195.7,286046996.7,N,1.2
1501715215.6,286046999.6,N,1.3
1501715235.4,286046996.5,N,1.3
1501715255.3,286046996.6,N,1.3
1501715275.1,286046997.0,N,1.3
1501715276.0,286046997.0,N,1.2
1501715295.8,286046996.6,N,1.2
1501715315.7,286046997.4,N,1.2
1501715335.5,286046997.7,N,1.2
1501715355.3,286046997.7,N,1.1
1501715375.2,286046997.6,N,1.1
1501715395.0,286046997.3,N,1.1
1501715395.9,286046997.3,N,1.1
1501715415.8,286046997.3,N,1.0
1501715435.6,286046997.5,N,1.0
1501715455.5,286046997.9,N,1.0
1501715475.3,286046997.7,N,1.0
1501715495.1,286046996.6,P,0.5
1501715515.9,286046999.9,N,1.4
1501715535.7,286047000.8,N,1.7
1501715555.5,286047000.8,N,1.7
1501715575.4,286047000.9,N,1.7
1501715595.2,286047000.4,N,1.6
1501715615.1,286047000.0,N,1.5
1501715616.0,286047000.0,N,1.4
1501715635.8,286047002.4,N,1.6
1501715655.6,286047002.4,N,1.7
1501715675.5,286047004.3,N,2.0
1501715695.3,286047001.8,N,1.9
1501715715.2,286047001.6,N,1.9
1501715735.9,286047001.3,N,1.8
1501715755.7,286047001.7,N,1.8
1501715775.6,286047001.3,N,1.7
1501715795.4,286047004.3,N,1.9
1501715815.3,286047004.4,N,2.0
1501715835.1,286047001.3,N,1.9
1501715836.0,286047001.3,N,1.9
1501715855.8,286047004.1,N,1.9
1501715875.7,286047004.1,N,2.0
1501715895.5,286047005.8,N,2.1
1501715915.4,286047003.4,N,2.1
1501715935.2,286047006.0,N,2.2
1501715955.0,286047005.4,N,2.3
1501715955.9,286047005.4,N,2.3
1501715975.8,286047003.0,N,2.3
1501715995.6,286047002.9,N,2.2
1501716015.5,286047003.0,N,2.1
1501716035.3,286047004.7,N,1.8
1501716055.1,286047006.0,P,1.7
1501716075.9,286047001.9,N,1.8
1501716095.7,286047001.9,N,1.7
1501716115.5,286047003.8,N,1.5
1501716135.4,286047004.0,N,1.4
1501716155.2,286047003.9,N,1.3
1501716175.1,286047001.6,N,1.4
1501716176.0,286047001.6,N,1.4
1501716195.8,286047001.5,N,1.4
1501716215.6,286047003.3,N,1.4
1501716235.5,286047003.7,N,1.3
1501716255.3,286047004.2,P,0.6
1501716275.2,286047002.4,P,0.7
1501716295.0,286047001.0,N,1.2
1501716295.9,286047001.0,N,1.2
1501716315.7,286047002.4,N,1.1
1501716335.6,286047002.6,N,1.0
1501716355.4,286047000.1,N,1.2
1501716375.3,286046999.7,N,1.4
1501716395.1,286046999.8,N,1.4
1501716415.8,286047002.5,N,1.4
1501716435.7,286046999.8,N,1.4
1501716455.5,286047002.0,N,1.4
1501716475.4,286047002.8,N,1.4
1501716495.2,286047001.5,N,1.3
1501716515.0,286047004.3,P,1.3
1501716515.9,286047004.3,P,1.2
1501716535.8,286046999.7,N,1.9
1501716555.6,286047002.0,N,1.7
1501716575.5,286047000.1,N,1.8
1501716595.3,286047000.1,N,1.8
1501716615.1,286046999.8,N,1.8
1501716635.9,286047002.7,N,1.7
1501716655.7,286047002.0,N,1.7
1501716675.5,286047002.3,N,1.6
1501716695.4,286047002.0,N,1.5
1501716715.2,286046999.8,N,1.6
1501716735.1,286047000.3,N,1.5
1501716736.0,286047000.3,N,1.5
1501716755.8,286047002.3,N,1.5
1501716775.7,286047002.4,N,1.5
1501716795.5,286047001.5,N,1.4
1501716815.3,286047002.2,N,1.4
1501716835.2,286047004.4,P,1.4
1501716855.0,286046999.8,N,1.9
1501716855.9,286046999.8,N,1.9
1501716875.8,286047000.0,N,1.8
1501716895.6,286046999.7,N,1.7
1501716915.4,286047002.5,N,1.7
1501716935.3,286047001.9,N,1.6
1501716955.1,286046999.8,N,1.6
1501716975.9,286046999.8,N,1.5
1501716995.7,286047004.3,N,1.7
1501717015.5,286047001.7,N,1.7
1501717035.4,286047000.0,N,1.6
1501717055.2,286046999.9,N,1.6
1501717075.1,286047002.0,N,1.6
1501717076.0,286047002.0,N,1.5
1501717095.8,286047001.9,N,1.5
1501717115.6,286047002.7,N,1.5
1501717135.5,286047002.7,N,1.5
1501717155.3,286047002.7,N,1.5
1501717175.2,286047000.2,N,1.5
1501717195.9,286047002.8,N,1.5
1501717215.7,286047001.4,N,1.4
1501717235.6,286047001.6,N,1.4
1501717255.4,286047004.3,P,1.4
1501717275.3,286047001.8,N,1.3
1501717295.1,286047000.1,N,1.5
1501717296.0,286047000.1,N,1.5
1501717315.8,286047000.2,N,1.5
1501717335.7,286046999.7,N,1.5
1501717355.5,286046998.4,N,1.7
1501717375.3,286047000.5,N,1.6
1501717395.2,286047000.7,N,1.5
1501717415.0,286047001.0,N,1.4
1501717415.9,286047001.0,N,1.4
1501717435.8,286046998.8,N,1.4
1501717455.6,286046998.6,N,1.5
1501717475.4,286046998.1,N,1.5
1501717495.3,286047002.8,N,1.6
1501717515.1,286047000.2,N,1.5
1501717535.9,286046999.9,N,1.5
1501717555.7,286047002.5,N,1.5
1501717575.5,286047000.3,N,1.5
1501717595.4,286047001.0,N,1.5
1501717615.2,286047001.2,N,1.4
1501717635.1,286047001.2,N,1.4
1501717636.0,286047001.2,N,1.4
1501717655.8,286047001.0,N,1.4
1501717675.6,286047000.8,N,1.3
1501717695.5,286046999.9,N,1.3
1501717715.3,286047000.1,N,1.3
1501717735.2,286047000.7,N,1.3
1501717755.0,286047000.8,N,1.3
1501717755.9,286047000.8,N,1.2
1501717775.8,286047002.4,N,1.1
1501717795.6,286047000.0,N,1.1
1501717815.4,286047000.4,N,1.1
1501717835.3,286047000.5,N,1.1
1501717855.1,286047000.0,N,1.1
1501717875.8,286047000.3,N,1.1
1501717895.7,286046999.7,N,1.0
1501717915.5,286047000.4,N,1.0
1501717935.4,286047002.4,N,1.1
1501717955.2,286047001.5,N,1.1
1501717975.0,286047001.8,N,1.1
1501717975.9,286047001.8,N,1.0
1501717995.8,286047001.6,N,1.0
1501718015.6,286047001.8,N,0.9
1501718035.5,286047001.3,N,0.8
1501718055.3,286047003.7,P,1.4
1501718075.1,286047000.3,N,1.5
1501718095.9,286047000.8,N,1.3
1501718115.7,286047000.6,N,1.2
1501718135.6,286047002.8,N,1.3
1501718155.4,286047001.0,N,1.2
1501718175.2,286047000.8,N,1.1
1501718195.1,286047000.9,N,1.1
1501718196.0,286047000.9,N,1.0
1501718215.8,286046998.1,N,1.3
1501718235.7,286047000.8,N,1.3
1501718255.5,286047000.8,N,1.2
1501718275.3,286047000.7,N,1.2
1501718295.2,286046999.7,N,1.2
1501718315.0,286046999.9,N,1.2
1501718315.9,286046999.9,N,1.2
1501718335.7,286047002.4,N,1.2
1501718355.6,286047000.1,N,1.2
1501718375.4,286046999.7,N,1.2
1501718395.3,286046999.7,N,1.2
